[Date Prev][Date Next][Thread Prev][Thread Next] - [Date Index][Thread Index][Author Index]

2 Line ISS Keps 8-30



ISS
1 25544U 98067A   04243.11692049  .00014011  00000-0  12301-3 0  5673
2 25544  51.6373 308.3219 0005642  93.2111 351.9192 15.69121911329939
----
Via the sarex mailing list at AMSAT.ORG courtesy of AMSAT-NA.
To unsubscribe, send "unsubscribe sarex" to Majordomo@amsat.org



AMSAT Top AMSAT Home